Location: Spring Creek
(38.2870°N, 100.2160°W)
Time: 15:06:53
(UTC+00:00)

Cosmos 2297 Rocket - Pass Details

Date: 29 September 2021
Orbit: 841 x 842 km, 71.0° (Epoch: 27 October)

Event Time Altitude Azimuth Distance (km) Brightness Sun altitude
Rises 02:53:19 0° 347° (NNW) 3,403 5.8 -28.8°
Reaches altitude 10° 02:56:09 10° 360° (N) 2,465 4.8 -29.3°
Enters shadow 02:58:23 20° 19° (NNE) 1,859 4.0 -29.8°
